This demonstration page uses our WeatherBlox Daily Observations layout. Learn more.

Left ArrowRight Arrow

36.19886, -115.1175

Hourly Observations for October 16, 2020

Temp ( °F °C ) Dew Point ( °F °C ) Humidity (%) Winds ( mph kmh ) Pressure ( in mb ) Visibility ( mi km ) Precip ( " mm )
12:53 am 00:53 Clear 69 20.6 27 -2.8 21 21 WNW 5 7 30.10 1019 10 16 0.00 0.00
1:53 am 01:53 Clear 69 20.6 25 -3.9 19 19 SE 5 7 30.11 1020 10 16 0.00 0.00
2:53 am 02:53 Clear 73 22.8 23 -5 15 15 NNE 10 17 30.11 1020 10 16 0.00 0.00
3:53 am 03:53 Clear 72 22.2 22 -5.6 15 15 N 14 22 30.11 1020 10 16 0.00 0.00
4:53 am 04:53 Clear 72 22.2 22 -5.6 15 15 N 16 26 30.11 1020 10 16 0.00 0.00
5:53 am 05:53 Clear 70 21.1 22 -5.6 16 16 N 14 22 30.13 1020 10 16 0.00 0.00
6:53 am 06:53 Sunny 69 20.6 21 -6.1 16 16 N 16 26 30.14 1021 10 16 0.00 0.00
7:53 am 07:53 Sunny 70 21.1 21 -6.1 16 16 N 15 24 30.15 1021 10 16 0.00 0.00
8:53 am 08:53 Sunny 74 23.3 21 -6.1 14 14 NNW 22 35 30.16 1021 10 16 0.00 0.00
9:53 am 09:53 Sunny 77 25 20 -6.7 12 12 N 15 24 30.15 1021 10 16 0.00 0.00
10:53 am 10:53 Sunny 80 26.7 19 -7.2 10 10 N 16 26 30.13 1020 10 16 0.00 0.00
11:53 am 11:53 Sunny 82 27.8 19 -7.2 9 9 NW 9 15 30.11 1020 10 16 0.00 0.00
12:53 pm 12:53 Sunny 85 29.4 18 -7.8 8 8 N 5 7 30.07 1018 10 16 0.00 0.00
1:53 pm 13:53 Sunny 86 30 19 -7.2 8 8 ESE 8 13 30.03 1017 10 16 0.00 0.00
2:53 pm 14:53 Sunny 86 30 18 -7.8 8 8 NE 3 6 30.00 1016 10 16 0.00 0.00
3:53 pm 15:53 Sunny 87 30.6 17 -8.3 7 7 Calm 29.98 1015 10 16 0.00 0.00
4:53 pm 16:53 Sunny 87 30.6 17 -8.3 7 7 Calm 29.97 1015 10 16 0.00 0.00
5:53 pm 17:53 Sunny 86 30 17 -8.3 8 8 Calm 29.96 1015 10 16 0.00 0.00
6:53 pm 18:53 Clear 82 27.8 22 -5.6 11 11 SW 3 6 29.96 1015 10 16 0.00 0.00
7:53 pm 19:53 Clear 77 25 24 -4.4 14 14 WNW 7 11 29.97 1015 10 16 0.00 0.00
8:53 pm 20:53 Clear 74 23.3 25 -3.9 16 16 NW 9 15 29.97 1015 10 16 0.00 0.00
9:53 pm 21:53 Clear 74 23.3 23 -5 15 15 W 7 11 29.96 1015 10 16 0.00 0.00
10:53 pm 22:53 Clear 73 22.8 23 -5 15 15 W 10 17 29.96 1015 10 16 0.00 0.00
11:53 pm 23:53 Clear 77 25 17 -8.3 10 10 NW 16 26 29.95 1014 10 16 0.00 0.00

Powered by AerisWeather